METEOR 2-7 DEB, 43300

Orbit data source: Space-Track

METEOR 2-7 DEB, 43300 is space debris in LEO originally from a launch on Thu, 14 May 1981 UTC launched from the Plesetsk Missile And Space Complex (PKMTR). Debris objects in space refer to the collection of defunct objects orbiting the Earth. Examples of debris include non-operational satellites, rocket bodies, and fragments generated from explosions, collisions, or faulty payload assembly.

Loading next visibility...
Identifier
43300, 1981-043X
Orbit
LEO
Last TLE update
2 days ago
Origin
Manufacturer
Unknown
Mission
Spacecraft
Bus & Motor
Unknown
Mass
Unknown
Launch date (UTC)
1981-05-14 (44 years ago)
Launch vehicle
Unknown
Launch site
Plesetsk Missile And Space Complex (PKMTR)
Object type
Payload
Rocket body
Debris
Shape & HBR
Unknown
Radar Cross Section
Small (<0.1 m²)

Expand to show TLE details & history

TLE from 2 days ago
0 METEOR 2-7 DEB
1 43300U 81043X   25187.90559412  .00003702  00000-0  14300-2 0  9996
2 43300  81.2545  44.3653 0034768 308.5053  51.3012 14.29689710505878
Epoch: 2025-07-06T21:44Z
TLE epoch observation values (Epoch: 2025-07-06T21:44:03.331Z)
Latitude
-0.00005°
Longitude
153.22884°
Altitude
780.157 km
Speed
7.472 km/s
True Right ascension
02h 57m 27s
True Declination
0° 00' 00"
Sunlit
Object was in daylight at epoch
Visualization orbit readout
Latitude
-72.13071°
Longitude
-0.87487°
Altitude
802.349 km
Speed
7.46 km/s
Apparent Right ascension
09h 56m 26s
Apparent Declination
-69° 58' 40"
Sunlit
Object is in full shadow
Visualization observer readout
Local Sidereal Time
20:11:23
Azimuth
196.137° SSW
Elevation
-56.97°
Doppler factor
1
Orbital elements
Apogee altitude
814.837 km
Perigee altitude
764.994 km
Semi-major axis
7,168.053 km
Eccentricity
0.00348
Inclination
81.2545°
RAAN
44.3653°
Arg. of periapsis
308.5053°
True anomaly
Unknown
Mean anomaly
51.3012°
Eccentric anomaly
Unknown
Mean motion
3.57636 °/min
Orbital period
100.66 mins
BSTAR
0.00143
Loading maneuver chart data...
Loading SW <> Apogee altitude chart data...
Loading historical data...
Loading historical data...
Loading historical data...
Loading historical data...
Loading historical data...
Loading historical data...
Loading historical data...

METEOR 2-7 DEB Visibility forecast

Observer location: undefined°, undefined°

Span
Click to sort rows by Start time (UTC) header in descending order
Start Az.
Max El. time (UTC)
Max El. Az.
Max El.
End time (UTC)
End Az.
6 mins2025-07-09 13:41:47.887Z119.82° SE2025-07-09 13:44:47.887Z84.625° E15.144°2025-07-09 13:47:47.887Z49.952° ENE
9 mins2025-07-09 15:21:47.887Z205.941° SW2025-07-09 15:25:47.887Z278.683° WNW40.356°2025-07-09 15:30:47.887Z0.479° NNE
9 mins2025-07-10 01:53:47.887Z353.23° N2025-07-10 01:57:47.887Z24.558° NE44.231°2025-07-10 02:02:47.887Z168.705° S
|